Location: Newark
(34.0131°N, 4.3314°W)
Time: 10:47:41
(UTC+00:00)

Transit 2A - All Passes

Search period start: 18 October 2019 00:00
Search period end: 28 October 2019 00:00
Orbit: 600 x 959 km, 66.7° (Epoch: 17 October)

Date Brightness Start Highest point End Pass type
(mag) Time Alt. Az. Time Alt. Az. Time Alt. Az.
18 Oct - 05:07:17 10° NNW 05:11:32 53° ENE 05:15:49 10° SE visible
18 Oct - 06:53:40 10° W 06:54:07 10° WSW 06:54:35 10° WSW daylight
18 Oct - 18:03:12 10° SE 18:05:16 12° ESE 18:07:17 10° E visible
18 Oct - 19:42:19 10° SSW 19:48:00 73° WNW 19:53:09 10° NNE visible
19 Oct - 04:33:26 10° N 04:37:21 32° ENE 04:41:18 10° ESE visible
19 Oct - 06:17:19 10° WNW 06:20:11 17° WSW 06:23:06 10° SSW daylight
19 Oct - 19:08:13 10° SSW 19:13:54 75° ESE 19:19:03 10° NNE visible
19 Oct - 20:54:42 10° W 20:57:26 14° NW 21:00:03 10° NNW visible
20 Oct - 03:59:49 10° N 04:03:08 21° NE 04:06:27 10° ESE visible
20 Oct - 05:42:29 10° NW 05:46:13 28° WSW 05:50:00 10° S visible
20 Oct - 18:34:21 10° S 18:39:49 48° ESE 18:44:48 10° NE visible
20 Oct - 20:19:07 10° WSW 20:23:07 20° NW 20:26:53 10° N visible
21 Oct - 03:26:36 10° NNE 03:28:50 14° NE 03:31:04 10° E visible
21 Oct - 05:08:02 10° NW 05:12:12 48° WSW 05:16:27 10° S visible
21 Oct - 18:00:49 10° S 18:05:47 31° ESE 18:10:21 10° NE visible
21 Oct - 19:44:04 10° WSW 19:48:52 29° WNW 19:53:18 10° N visible
22 Oct - 04:33:48 10° NNW 04:38:09 82° WSW 04:42:34 10° SSE visible
22 Oct - 17:27:40 10° SSE 17:31:46 21° ESE 17:35:37 10° ENE daylight
22 Oct - 19:09:23 10° SW 19:14:42 44° WNW 19:19:32 10° NNE visible
23 Oct - 03:59:45 10° NNW 04:04:02 59° ENE 04:08:23 10° SE visible
23 Oct - 16:55:17 10° SE 16:57:48 13° ESE 17:00:13 10° E daylight
23 Oct - 18:34:57 10° SW 18:40:33 67° WNW 18:45:37 10° NNE visible
24 Oct - 03:25:53 10° N 03:29:53 36° ENE 03:33:56 10° SE visible
24 Oct - 05:10:02 10° WNW 05:12:40 16° WSW 05:15:19 10° SW visible
24 Oct - 18:00:48 10° SSW 18:06:27 81° ESE 18:11:32 10° NNE visible
24 Oct - 19:47:49 10° WNW 19:50:01 12° NW 19:52:10 10° NNW visible
25 Oct - 02:52:12 10° N 02:55:40 23° NE 02:59:10 10° ESE night (unlit)
25 Oct - 04:35:06 10° NW 04:38:42 26° WSW 04:42:23 10° SSW visible
25 Oct - 17:26:53 10° S 17:32:22 53° ESE 17:37:20 10° NE daylight
25 Oct - 19:12:00 10° W 19:15:42 18° NW 19:19:11 10° N visible
26 Oct - 02:18:52 10° NNE 02:21:24 15° NE 02:23:56 10° E night (unlit)
26 Oct - 04:00:35 10° NW 04:04:41 43° WSW 04:08:54 10° S night (unlit)
26 Oct - 16:53:17 10° S 16:58:19 34° ESE 17:02:56 10° NE daylight
26 Oct - 18:36:53 10° WSW 18:41:27 27° WNW 18:45:41 10° N visible
27 Oct - 03:26:19 10° NNW 03:30:38 74° WSW 03:35:04 10° SSE night (unlit)
27 Oct - 16:20:03 10° SSE 16:24:18 22° ESE 16:28:16 10° ENE daylight
27 Oct - 18:02:06 10° SW 18:07:15 40° WNW 18:11:58 10° N visible
